TimeEST,TemperatureF,Dew PointF,Humidity,Sea Level PressureIn,VisibilityMPH,Wind Direction,Wind SpeedMPH,Gust SpeedMPH,PrecipitationIn,Events,Conditions,WindDirDegrees,DateUTC
12:53 AM,33.1,26.1,75,30.30,10.0,North,4.6,-,N/A,,Clear,10,2012-11-15 05:53:00
1:53 AM,30.9,25.0,79,30.28,10.0,NE,4.6,-,N/A,,Clear,40,2012-11-15 06:53:00
2:53 AM,30.9,25.0,79,30.30,10.0,Calm,Calm,-,N/A,,Clear,0,2012-11-15 07:53:00
3:53 AM,28.0,25.0,88,30.30,10.0,Calm,Calm,-,N/A,,Clear,0,2012-11-15 08:53:00
4:53 AM,27.0,23.0,85,30.31,10.0,Calm,Calm,-,N/A,,Clear,0,2012-11-15 09:53:00
5:53 AM,26.1,24.1,92,30.32,10.0,Calm,Calm,-,N/A,,Clear,0,2012-11-15 10:53:00
6:53 AM,26.1,23.0,88,30.32,10.0,Calm,Calm,-,N/A,,Clear,0,2012-11-15 11:53:00
7:53 AM,25.0,23.0,92,30.33,10.0,Calm,Calm,-,N/A,,Clear,0,2012-11-15 12:53:00
8:53 AM,30.9,27.0,85,30.36,10.0,Calm,Calm,-,N/A,,Clear,0,2012-11-15 13:53:00
9:53 AM,37.0,28.9,73,30.36,10.0,Calm,Calm,-,N/A,,Clear,0,2012-11-15 14:53:00
10:53 AM,43.0,30.0,60,30.35,10.0,Calm,Calm,-,N/A,,Clear,0,2012-11-15 15:53:00
11:53 AM,46.9,30.0,52,30.33,10.0,Calm,Calm,-,N/A,,Clear,0,2012-11-15 16:53:00
12:53 PM,50.0,30.0,46,30.30,10.0,Calm,Calm,-,N/A,,Clear,0,2012-11-15 17:53:00
1:53 PM,52.0,30.0,43,30.29,10.0,Calm,Calm,-,N/A,,Clear,0,2012-11-15 18:53:00
2:53 PM,53.1,28.9,40,30.28,10.0,Calm,Calm,-,N/A,,Clear,0,2012-11-15 19:53:00
3:53 PM,53.1,28.0,38,30.27,10.0,ENE,4.6,-,N/A,,Clear,60,2012-11-15 20:53:00
4:53 PM,51.1,28.9,43,30.27,10.0,NNE,3.5,-,N/A,,Clear,30,2012-11-15 21:53:00
5:53 PM,44.1,30.0,58,30.29,10.0,NW,5.8,-,N/A,,Clear,310,2012-11-15 22:53:00
6:53 PM,44.1,28.9,55,30.30,10.0,North,4.6,-,N/A,,Clear,360,2012-11-15 23:53:00
7:53 PM,41.0,28.9,62,30.32,10.0,North,4.6,-,N/A,,Clear,360,2012-11-16 00:53:00
8:53 PM,37.9,28.9,70,30.33,10.0,North,4.6,-,N/A,,Clear,350,2012-11-16 01:53:00
9:53 PM,37.9,28.9,70,30.33,10.0,Calm,Calm,-,N/A,,Clear,0,2012-11-16 02:53:00
10:53 PM,36.0,28.0,73,30.33,10.0,Calm,Calm,-,N/A,,Clear,0,2012-11-16 03:53:00
11:53 PM,33.1,28.0,82,30.33,10.0,Calm,Calm,-,N/A,,Clear,0,2012-11-16 04:53:00